Skip to main content.
NOAA NWS Hourly Roundups by Site

NOAA NWS Hourly Roundups by Site

Regional Weather Roundup for Omaha, NE

To Select Another Site Choose from List

Select Site:  

516
ASUS43 KOAX 131910
RWRNE

WEATHER ROUNDUP FOR NEBRASKA
NATIONAL WEATHER SERVICE OMAHA NE
200 PM CDT TUE APR 13 2021

NOTES: SATELLITE DATA IS BEING USED TO AUGMENT CLOUD COVER ABOVE
       12000 FEET.
       "FAIR" INDICATES FEW OR NO CLOUDS BELOW 12,000 FEET WITH NO
       SIGNIFICANT WEATHER AND/OR OBSTRUCTIONS TO VISIBILITY.


NEZ001>004-019>022-054>056-132000-
NEBRASKA PANHANDLE

CITY           SKY/WX    TMP DP  RH WIND       PRES   REMARKS
SCOTTSBLUFF    MOSUNNY   45  14  28 NW16G23   30.22F
ALLIANCE       SUNNY     43  19  38 NW13G24   30.19F
CHADRON        SUNNY     42  17  36 W21G31    30.23F
GORDON         MOSUNNY   42  18  37 W10G18    30.18F
KIMBALL        CLOUDY    38  14  36 N6        30.21F WCI  34
SIDNEY         CLOUDY    43  17  35 W9        30.20F
$$

NEZ057>060-069>072-079>082-132000-
SOUTHWEST NEBRASKA

CITY           SKY/WX    TMP DP  RH WIND       PRES   REMARKS
NORTH PLATTE   CLOUDY    51  22  31 W12       30.21F
IMPERIAL       MOSUNNY   48  17  29 N16       30.23F
LEXINGTON      CLOUDY    48  22  36 W12       30.24F
MCCOOK         MOSUNNY   52  18  26 NW13G22   30.23F
OGALLALA       PTSUNNY   49  16  26 N15       30.22F
$$

NEZ005>010-023>029-035>040-094-132000-
NORTH CENTRAL NEBRASKA

CITY           SKY/WX    TMP DP  RH WIND       PRES   REMARKS
VALENTINE      PTSUNNY   46  19  34 NW18G37   30.19F
AINSWORTH      MOSUNNY   43  18  36 NW20G29   30.20F
BROKEN BOW     MOSUNNY   50  23  34 W15G23    30.21F
O`NEILL        PTSUNNY   44  20  38 NW18G30   30.21F
ORD            MOSUNNY   49  24  37 NW16G30   30.20F
THEDFORD       MOSUNNY   46  21  36 NW7G17    30.21F
$$

NEZ041-046>049-061>064-073>077-083>087-132000-
SOUTH CENTRAL NEBRASKA

CITY           SKY/WX    TMP DP  RH WIND       PRES   REMARKS
GRAND ISLAND   SUNNY     51  23  33 NW18G28   30.23F
AURORA         SUNNY     51  24  35 NW9G26    30.22F
HASTINGS       SUNNY     50  25  37 NW9G22    30.23F
HEBRON         MOSUNNY   52  25  35 NW8G16    30.24F
HOLDREGE       MOSUNNY   49  22  34 W14       30.23F
KEARNEY        SUNNY     49  23  36 NW10G18   30.23F
YORK           SUNNY     52  27  37 NW15G29   30.21F
$$

NEZ011>018-030>034-042>045-132000-
NORTHEAST NEBRASKA

CITY           SKY/WX    TMP DP  RH WIND       PRES   REMARKS
NORFOLK        MOSUNNY   48  23  37 W26G33    30.19F
ALBION         MOSUNNY   48  24  38 W16G30    30.21F
BLAIR          MOSUNNY   49  24  37 W18G28    30.19F
COLUMBUS       SUNNY     50  25  37 NW18G30   30.21F
FREMONT        MOSUNNY   52  27  38 W17G26    30.21F
TEKAMAH        SUNNY     51  26  37 NW20G38   30.19F
WAYNE          MOSUNNY   47  24  40 NW22G30   30.19F
$$

NEZ050>053-065>068-078-088>093-132000-
SOUTHEAST NEBRASKA

CITY           SKY/WX    TMP DP  RH WIND       PRES   REMARKS
LINCOLN        SUNNY     54  25  32 NW9G21    30.23F
OMAHA EPPLEY   MOSUNNY   53  26  35 NW18G35   30.19F
BEATRICE       MOSUNNY   52  28  38 NW13      30.23F
FALLS CITY     SUNNY     54  29  38 NW17G26   30.22F
NEBRASKA CITY  MOSUNNY  N/A N/A N/A NW10G25   30.22F
PLATTSMOUTH    MOSUNNY   51  25  36 NW13G23   30.21F
$$

NEZ044-045-051>053-067-132000-
OMAHA AREA

CITY           SKY/WX    TMP DP  RH WIND       PRES   REMARKS
OMAHA EPPLEY   MOSUNNY   53  26  35 NW18G35   30.19F
BLAIR          MOSUNNY   49  24  37 W18G28    30.19F
FREMONT        MOSUNNY   52  27  38 W17G26    30.21F
MILLARD        MOSUNNY   52  27  37 NW16      30.20F
OFFUTT AFB     MOSUNNY  N/A N/A N/A NW17        N/A
PLATTSMOUTH    MOSUNNY   51  25  36 NW13G23   30.21F
WAHOO          SUNNY     53  25  33 NW20G25   30.20F
$$



 

View Past Reports for Omaha, NE.

Products Courtesy of NOAA-NWS
NWS Information Parsing Script by Ken True at Saratoga Weather - Script by SE Lincoln Weather.